Theta_e
335 343 345 343 342 346 346 346 347 348 347 346 346 344 342 341 339 337 337 336 336 336 336 336 336 335 335 334 334 335 334 333 333 332 331 332 333 333 333 332 333 328 332
340 342 344 344 343 346 346 346 347 346 347 346 345 343 342 340 339 337 337 336 335 334 334 334 334 333 332 332 333 333 333 331 330 329 330 331 333 333 332 331 332 330 331
339 340 342 344 344 345 346 345 346 347 346 346 345 343 343 340 339 338 337 336 335 334 334 332 331 330 330 331 332 333 333 331 328 328 330 327 328 331 334 332 330 330 330
338 338 339 342 344 345 345 345 345 345 345 345 345 345 343 342 340 339 337 336 335 335 334 333 332 332 332 332 333 333 332 331 329 328 324 325 325 330 331 335 334 331 329
336 336 338 342 344 345 344 344 343 343 342 341 340 339 337 335 336 335 338 336 335 333 335 334 333 333 333 333 332 331 330 329 330 328 325 324 324 326 330 332 333 334 331
334 331 338 343 343 344 344 343 341 339 338 337 336 336 335 334 333 332 332 334 336 336 336 335 335 334 333 332 331 330 330 330 329 328 328 329 329 331 332 332 332 334 336
333 338 338 341 342 343 344 341 338 337 336 336 335 335 334 333 332 332 331 331 330 330 330 330 331 331 331 332 333 333 332 331 330 330 329 329 330 332 335 335 335 335 336
332 341 337 336 340 342 342 340 339 337 335 335 333 333 332 332 332 332 332 332 332 332 333 333 333 333 333 334 334 334 333 331 330 330 330 330 331 331 336 337 336 337 337
333 338 338 339 338 334 337 339 340 338 337 335 334 334 333 332 332 332 331 331 332 333 333 334 334 335 335 335 335 334 332 330 330 332 331 331 331 334 337 337 337 337 337
335 334 334 335 333 333 337 334 336 337 337 336 335 333 331 332 332 331 331 331 333 334 334 335 335 335 335 335 334 333 330 328 330 332 332 332 332 335 337 338 337 337 337
334 337 338 335 334 334 336 334 333 334 334 333 332 330 331 336 335 334 330 331 331 332 333 334 335 335 334 331 332 331 327 334 333 333 333 332 333 335 338 338 338 338 337
329 333 336 337 335 334 334 338 338 339 339 338 337 337 336 335 335 331 325 327 328 329 331 333 334 332 328 334 333 330 333 334 334 333 333 332 334 335 337 337 337 337 337
330 331 333 338 335 334 335 338 338 338 338 337 338 338 336 335 336 335 335 334 335 324 335 335 336 336 336 336 335 335 335 335 334 334 332 330 333 334 334 333 334 335 336
328 331 334 334 334 335 336 336 336 336 337 336 337 337 336 335 336 336 336 337 338 338 337 338 337 337 336 336 336 335 334 334 334 334 331 325 329 331 330 332 332 332 333
326 328 331 333 333 334 334 333 332 332 333 335 336 337 337 336 337 337 338 338 338 338 337 337 336 335 335 334 335 334 333 334 334 333 331 319 324 327 329 331 331 332 333
326 326 329 331 331 329 329 330 331 334 336 338 338 339 338 338 338 338 338 336 337 338 336 336 335 334 334 333 332 333 333 333 329 326 323 325 323 326 327 329 330 330 330
327 327 327 328 329 329 330 333 335 338 338 339 339 339 339 338 338 337 336 336 336 336 334 335 334 332 330 329 328 327 325 324 322 321 323 324 326 322 325 325 325 326 326
330 329 329 329 331 334 335 337 337 338 339 338 338 338 337 337 337 336 334 333 334 334 331 327 326 325 324 322 320 320 321 322 322 322 323 323 323 322 324 323 321 322 322
332 331 330 333 335 336 338 338 338 338 337 336 335 333 331 330 331 332 329 327 327 326 324 322 321 320 318 317 316 318 319 320 321 320 322 318 321 320 321 319 319 319 319
333 332 333 334 336 337 338 338 337 335 330 328 326 325 325 324 324 325 323 322 322 320 318 317 317 317 317 315 312 313 315 319 320 323 319 314 320 318 317 316 317 313 315
335 334 334 335 336 336 336 334 332 328 325 322 322 322 321 321 321 321 319 317 317 315 313 313 313 313 314 315 310 310 314 315 316 315 311 316 314 315 313 310 309 310 311
332 333 334 334 333 335 336 335 335 327 323 319 316 313 314 313 313 312 312 311 310 310 309 309 309 308 310 312 305 309 305 305 309 307 310 309 312 308 307 306 306 307 306
325 325 325 323 325 328 330 329 325 320 317 315 311 307 307 307 307 309 307 307 307 307 305 305 305 305 303 307 309 305 299 297 301 306 305 306 304 304 303 304 304 303 304
317 317 317 317 318 321 324 324 320 317 312 310 306 305 303 303 303 304 304 304 304 304 302 303 302 303 302 300 303 302 303 302 296 296 303 300 300 300 300 302 299 302 304
312 312 312 312 312 315 318 320 317 311 308 307 305 302 301 301 300 300 301 301 300 301 300 300 300 299 299 299 298 298 299 298 300 294 291 294 297 298 299 297 301 300 302
309 309 309 308 307 309 310 311 309 306 304 303 302 301 300 299 298 298 299 299 298 297 297 298 299 297 297 297 296 296 294 293 292 291 290 290 291 293 295 299 299 299 302
Wind_Speed
13 15 13 13 12 9 8 9 12 11 12 12 14 14 14 13 13 13 13 13 13 12 12 12 12 11 10 11 11 11 12 11 10 7 6 6 9 9 10 9 12 10 9
18 16 11 12 12 10 9 10 11 11 13 13 15 13 13 13 13 12 12 12 11 11 11 10 9 9 9 9 9 9 10 10 8 8 7 6 9 9 8 8 9 8 9
17 15 13 11 11 11 11 11 10 13 14 13 14 13 12 11 11 11 10 9 10 9 9 8 8 8 8 8 8 9 9 9 8 9 11 5 5 7 8 6 7 8 8
16 13 14 10 11 12 11 12 13 14 13 13 12 12 11 11 10 9 8 8 8 8 7 7 7 7 7 7 8 8 9 9 9 10 6 6 8 8 7 9 6 4 5
15 12 14 10 11 11 11 12 12 11 11 11 10 10 9 8 8 7 6 7 6 5 5 5 5 5 6 7 7 7 7 7 9 11 4 4 5 8 8 8 9 9 3
13 13 13 11 12 10 12 12 10 9 9 9 8 8 8 8 7 6 6 6 5 6 6 3 4 5 5 6 6 6 7 9 14 7 6 3 4 7 9 9 9 9 9
14 14 13 11 11 10 10 10 9 8 7 7 6 7 7 7 7 7 6 6 5 4 3 3 4 5 5 6 7 8 9 9 10 9 6 6 5 7 10 11 11 12 12
14 14 14 10 9 9 9 8 8 7 7 7 7 6 6 6 5 5 4 3 3 3 4 4 5 6 7 7 8 8 8 8 10 9 7 6 6 6 10 12 12 13 14
14 13 13 12 10 7 7 7 7 7 6 6 6 6 5 4 4 3 2 2 3 3 4 5 6 6 7 8 8 8 8 9 9 6 7 5 4 8 11 12 13 14 14
11 11 12 12 11 10 9 6 6 6 5 5 5 4 3 3 3 3 4 1 3 5 5 6 7 7 8 9 9 8 9 12 11 7 5 3 3 9 12 13 14 15 15
6 4 10 9 10 9 10 8 6 5 4 4 5 5 6 4 3 4 4 1 4 6 7 8 8 8 9 12 11 8 8 6 7 6 5 4 4 11 15 16 17 17 17
12 9 6 6 8 8 5 9 5 6 5 4 2 4 3 1 2 4 4 4 7 7 9 9 8 9 9 5 2 10 5 7 7 7 6 2 5 12 16 17 17 18 18
12 8 8 10 9 8 6 6 4 3 1 1 3 5 2 2 2 2 2 2 2 7 4 4 3 4 6 5 6 6 7 7 6 5 7 2 5 10 16 18 18 18 17
14 12 11 11 9 8 5 4 5 5 4 4 5 4 2 2 1 2 2 3 2 2 4 4 4 5 7 8 7 8 8 7 6 5 7 2 3 9 15 16 16 16 16
12 12 12 11 9 7 6 4 3 3 4 2 2 2 2 2 2 2 3 3 4 4 4 5 6 7 8 9 8 9 9 9 10 6 5 8 3 7 12 14 14 14 14
12 12 12 10 8 8 6 5 4 3 3 2 1 1 1 2 3 4 4 4 5 4 5 5 7 7 7 7 8 8 9 8 9 8 6 6 4 3 7 11 13 13 13
11 12 11 10 9 7 7 6 4 3 2 2 0 0 2 3 4 5 5 4 5 5 6 6 6 6 7 7 9 8 7 8 7 7 5 5 6 3 5 7 10 12 13
12 12 11 9 10 8 6 5 4 3 2 1 0 2 4 4 5 4 4 5 5 3 4 6 6 6 7 7 7 7 6 6 6 4 4 5 5 6 3 5 5 8 11
11 12 12 11 10 9 7 5 3 3 1 3 4 5 6 7 7 5 5 5 6 5 6 6 6 6 7 7 8 6 6 5 4 4 4 5 5 5 5 9 6 5 8
10 10 11 10 10 9 6 5 4 5 4 5 5 5 6 7 8 6 5 6 6 5 6 7 8 7 6 7 9 7 7 4 3 3 6 8 5 7 8 10 9 9 14
9 9 10 10 10 8 6 7 6 6 5 6 6 8 9 8 8 8 6 6 6 6 8 8 7 8 5 7 6 7 5 5 2 6 8 6 8 8 8 10 7 7 7
9 9 8 8 7 7 6 5 5 7 6 7 7 8 9 10 10 8 7 7 8 6 8 9 8 6 4 7 6 6 5 7 7 11 6 6 8 8 9 10 11 9 10
8 7 6 6 6 5 6 6 7 8 7 6 6 7 9 10 10 9 10 7 7 7 7 8 8 9 6 6 7 4 5 4 9 4 10 8 10 8 9 8 8 12 10
8 7 7 7 7 5 7 8 10 7 7 7 7 7 7 10 10 10 9 9 8 6 8 6 7 6 6 6 5 7 4 7 5 6 5 12 10 10 10 7 11 8 8
8 8 8 9 9 7 6 6 6 9 8 7 7 8 8 8 10 10 9 8 8 5 7 7 7 8 6 6 5 6 6 7 4 6 8 8 7 9 7 10 6 6 9
8 9 9 10 11 10 10 11 11 11 9 7 7 6 5 6 6 9 8 7 8 8 8 7 7 9 8 7 6 6 6 5 8 7 9 11 11 6 10 6 5 5 6
Wind_Direction
136 130 140 141 137 120 105 133 143 140 132 134 117 106 99 93 87 83 81 76 73 73 74 74 72 69 62 54 49 41 37 35 32 26 21 52 42 43 39 27 359 44 23
127 140 142 140 136 118 99 122 127 136 132 125 112 109 102 95 89 88 84 83 80 79 79 79 78 72 62 54 45 39 37 31 19 354 315 238 80 35 37 28 16 18 10
133 138 149 138 136 122 107 113 132 131 127 126 119 117 109 102 96 92 88 78 90 85 83 80 76 70 62 52 38 30 25 18 360 326 296 343 48 51 12 19 6 358 352
132 156 141 135 137 126 116 99 97 101 100 101 100 103 94 92 86 88 92 91 81 86 80 78 72 61 51 36 25 19 15 5 342 308 336 8 345 66 1 341 334 328 333
141 142 122 133 138 131 119 108 103 102 100 98 96 96 96 96 94 85 64 78 61 91 79 71 65 49 30 20 17 13 6 349 315 289 356 22 324 45 348 331 323 329 319
135 130 132 138 143 137 124 117 113 110 108 107 107 105 101 97 90 83 76 67 45 62 45 47 42 24 11 1 357 356 350 339 317 339 348 5 312 13 333 319 315 307 303
139 131 144 140 143 137 129 128 124 117 110 106 102 102 105 104 99 94 86 77 62 47 37 22 3 354 351 347 345 344 343 335 320 315 334 336 350 359 331 322 315 311 307
138 141 134 133 138 136 130 129 119 110 106 107 103 96 96 98 98 94 81 66 50 25 9 0 350 339 335 335 334 328 322 320 312 313 337 328 65 337 319 316 311 305 304
140 141 145 151 138 120 123 123 113 106 103 108 108 101 95 92 85 72 47 18 359 347 336 331 327 322 316 316 313 308 306 302 296 304 313 303 63 329 313 307 306 304 302
148 154 152 152 161 162 150 126 121 118 116 115 111 107 111 160 177 201 225 164 323 319 311 304 304 302 297 294 285 284 291 285 252 312 305 316 347 310 307 304 302 303 302
159 159 153 164 165 169 158 141 150 148 145 154 167 174 221 235 200 198 104 337 295 291 283 283 286 289 286 269 247 247 263 279 324 306 302 89 328 308 306 306 304 301 299
171 160 169 164 173 170 162 156 196 147 177 193 211 195 233 260 327 309 282 239 256 260 269 260 261 258 253 309 297 222 268 322 298 303 300 73 303 313 315 314 311 308 311
174 169 177 185 188 177 178 160 176 169 193 206 249 282 273 285 270 242 310 225 279 197 287 241 273 286 329 310 314 309 315 306 307 306 316 182 296 316 320 317 313 310 313
177 179 179 194 182 185 180 206 168 180 173 199 200 225 265 272 304 291 311 313 273 314 314 307 309 311 304 304 297 303 303 307 314 311 314 70 318 332 325 324 324 319 322
180 176 179 190 180 181 198 184 189 192 192 175 172 181 265 277 287 302 315 306 311 311 314 316 316 315 311 313 323 309 308 311 313 321 331 3 44 349 342 343 342 343 341
175 174 173 179 185 175 186 184 180 173 146 194 176 146 232 291 309 322 308 312 311 343 313 313 324 322 312 322 305 313 302 308 326 335 334 329 17 24 12 7 1 1 359
176 166 169 171 177 179 189 174 180 157 189 196 225 292 345 320 322 315 313 322 329 328 332 333 307 327 322 323 325 326 329 328 325 333 337 342 348 89 80 33 6 357 1
173 167 166 168 176 180 180 173 171 162 188 156 52 8 18 356 335 318 352 21 350 334 351 347 337 343 329 333 336 329 322 323 328 347 352 355 355 341 95 61 15 351 354
172 173 169 173 174 176 177 179 164 135 104 67 54 42 38 32 16 28 31 21 358 10 13 352 351 354 342 348 328 323 317 318 326 331 333 343 352 350 350 359 358 324 336
174 174 168 172 175 174 166 177 149 92 86 70 56 57 41 43 30 41 43 29 23 23 22 10 359 358 360 344 327 326 316 316 334 338 344 331 17 0 2 350 358 349 343
176 174 170 168 172 171 170 171 164 138 103 82 69 53 51 38 41 36 42 32 27 35 27 20 0 353 359 1 326 334 312 335 338 20 332 357 356 14 359 355 347 342 336
169 174 175 159 172 187 178 179 127 129 104 101 83 64 53 51 38 45 36 40 30 31 29 27 18 2 358 19 344 296 327 314 33 340 341 337 8 342 8 340 344 339 347
152 143 146 140 148 157 136 129 114 111 120 108 88 69 54 50 48 38 37 35 38 36 30 22 17 18 352 13 9 1 339 346 330 340 333 4 328 5 346 336 340 343 342
117 108 114 113 115 114 145 145 150 143 118 94 95 88 71 58 50 43 39 37 33 31 29 15 19 7 1 5 341 20 340 313 321 315 346 315 358 348 337 353 334 332 346
126 113 109 103 95 100 113 122 105 99 109 105 101 92 89 70 54 47 39 35 32 30 28 27 19 16 14 4 359 352 336 320 312 318 301 333 329 330 345 331 322 330 2
113 104 100 99 88 85 87 91 101 110 111 111 105 97 83 80 56 38 37 33 31 23 18 24 25 28 16 18 2 7 360 357 335 327 315 318 316 333 305 289 341 8 20